{"data":{"norad_id":64489,"epoch":"2026-09-20T09:05:03.549120Z","epoch_age_seconds":141666,"freshness":"FRESH","line1":"1 64489U 25133T   26263.37851330  .00017192  00000+0  51856-3 0  9991","line2":"2 64489  53.1593 291.9527 0001027  75.0303 285.0813 15.34413666 70982","mean_motion":15.34413666,"eccentricity":0.0001027,"inclination_deg":53.1593,"raan_deg":291.9527,"arg_perigee_deg":75.0303,"mean_anomaly_deg":285.0813,"bstar":0.00051856,"rev_number":7098,"period_min":93.846922241893,"perigee_km":461.96007215538,"apogee_km":463.3651723978,"semimajor_km":6840.7996222766,"source":"CELESTRAK","updated_at":"2026-09-21T09:00:35.361673Z"}}